Voltar ao catálogo

PRAETORIAN SDA_621

AtivoMilitarPO
NORAD 65584·PAYLOAD·🇺🇸 United States

Lançado Sep 10, 2025 de Vandenberg Space Force Base

Loading…

Próximas Passagens (próximas 24 horas)

TLE

AtualizadoSource: Space-Track

Época: Sep 14, 2026, 09:12 UTC

1 65584U 25203V   26257.38349181  .00000063  00000-0  46305-4 0  9990
2 65584  81.2993 288.1709 0006424 309.3395  50.7192 13.83809277 51036

Acompanhe PRAETORIAN SDA_621 em tempo real com AllMySat

Download on the App Store